Location: Caltech
(34.1382°N, 118.1253°W)
Time: 14:11:08
(UTC-07:00)

Cosmos 2333 Rocket - Visible Passes

Search period start: 25 October 2014 00:00
Search period end: 03 November 2014 23:00
Orbit: 839 x 862 km, 70.9° (Epoch: 25 October)

Date Brightness Start Highest point End Pass type
(mag) Time Alt. Az. Time Alt. Az. Time Alt. Az.
25 Oct 4.6 04:09:40 10° NNE 04:13:36 19° ENE 04:17:30 10° ESE visible
25 Oct 2.3 05:52:41 10° NNW 05:58:10 53° WSW 06:03:36 10° S visible
25 Oct 2.2 18:57:13 10° SSW 19:02:55 72° ESE 19:08:38 10° NNE visible
25 Oct 4.9 20:44:35 10° W 20:47:44 15° NW 20:50:53 10° NNW visible
26 Oct 4.5 03:58:56 15° NNE 04:01:19 19° ENE 04:05:13 10° ESE visible
26 Oct 2.3 05:41:05 14° NNW 05:45:53 53° WSW 05:51:19 10° S visible
26 Oct 2.2 18:44:56 10° SSW 18:50:38 72° ESE 18:56:21 10° NNE visible
26 Oct 4.9 20:32:18 10° W 20:35:27 15° NW 20:38:36 10° NNW visible
27 Oct 4.5 03:48:53 19° NE 03:49:02 19° ENE 03:52:56 10° ESE visible
27 Oct 2.2 05:31:02 30° NW 05:33:36 53° WSW 05:39:02 10° S visible
27 Oct 2.2 18:32:39 10° SSW 18:38:21 72° ESE 18:44:04 10° NNE visible
27 Oct 4.9 20:20:01 10° W 20:23:10 15° NW 20:26:19 10° NNW visible
28 Oct 4.7 03:38:48 16° E 03:38:48 16° E 03:40:39 10° ESE visible
28 Oct 2.2 05:20:56 52° W 05:21:19 53° WSW 05:26:45 10° S visible
28 Oct 2.3 18:20:22 10° SSW 18:26:04 72° ESE 18:31:47 10° NNE visible
28 Oct 4.9 20:07:44 10° W 20:10:53 15° NW 20:14:02 10° NNW visible
29 Oct 2.8 05:10:45 39° SSW 05:10:45 39° SSW 05:14:28 10° S visible
29 Oct 4.9 19:55:27 10° W 19:58:36 15° NW 20:01:45 10° NNW visible
30 Oct 3.8 05:00:27 20° S 05:00:27 20° S 05:02:11 10° S visible
30 Oct 4.9 19:43:10 10° W 19:46:19 15° NW 19:49:28 10° NNW visible
31 Oct 4.8 19:30:53 10° W 19:34:02 15° NW 19:37:11 10° NNW visible
01 Nov 4.8 19:18:36 10° W 19:21:45 15° NW 19:24:54 10° NNW visible
02 Nov 4.8 18:06:19 10° W 18:09:28 15° NW 18:12:37 10° NNW visible
03 Nov 4.8 17:54:02 10° W 17:57:11 15° NW 18:00:20 10° NNW visible
